Hourly Data Report for March 19, 2016

DAWSON
YUKON TERRITORY

64°03'39.076" N
139°07'36.000" W
370.00 m
2100LRP
71966
WON

Download Data

Hourly Data (March 2016)
Hourly Data Report for March 19, 2016
TIME
LST
Temp Definition
°C
Dew Point Definition
°C
Rel Hum Definition
%
Precip. Amount Definition
mm

Wind Dir Definition
10's deg

Wind Spd Definition
km/h
Visibility Definition
km
Stn Press Definition
kPa
Hmdx Definition


Wind Chill Definition


Weather Definition


00:00 -10.1 -12.2 84 0.8 36 1   96.81   -11 LegendNANA
01:00 -10.4 -12.6 84 0.9 21 4   96.81   -13 LegendNANA
02:00 -10.6 -13.1 82 0.5 4 2   96.79   -12 LegendNANA
03:00 -10.9 -13.8 79 0.0 11 1   96.78   -12 LegendNANA
04:00 -11.4 -14.4 78 0.2 4 3   96.74   -13 LegendNANA
05:00 -11.6 -14.8 77 0.0 1 2   96.71   -13 LegendNANA
06:00 -12.1 -15.3 77 0.0   0   96.72     LegendNANA
07:00 -12.3 -15.6 76 0.0 2 4   96.69   -15 LegendNANA
08:00 -12.2 -15.3 78 0.0 0 1   96.67   -13 LegendNANA
09:00 -11.8 -15.3 75 0.0 0 1   96.67   -12 LegendNANA
10:00 -11.1 -14.9 74 0.0 3 5   96.65   -14 LegendNANA
11:00 -10.3 -14.2 73 0.0 3 6   96.62   -14 LegendNANA
12:00 -9.4 -13.5 72 0.0 2 5   96.59   -12 LegendNANA
13:00 -7.8 -12.2 70 0.0 6 3   96.53   -9 LegendNANA
14:00 -6.1 -10.8 69 0.0   0   96.47     LegendNANA
15:00 -7.3 -10.8 76 0.0 22 8   96.45   -11 LegendNANA
16:00 -7.6 -11.1 76 0.0 22 5   96.48   -10 LegendNANA
17:00 -7.0 -10.4 77 0.0   0   96.47     LegendNANA
18:00 -6.5 -9.8 77 0.0 0 1   96.49   -7 LegendNANA
19:00 -6.7 -9.9 78 0.0 23 4   96.51   -9 LegendNANA
20:00 -6.7 -9.1 83 0.0 24 2   96.52   -8 LegendNANA
21:00 -7.2 -9.6 83 0.0 23 4   96.55   -9 LegendNANA
22:00 -7.6 -9.9 84 0.0 0 1   96.60   -8 LegendNANA
23:00 -7.4 -9.5 85 0.0 23 4   96.66   -9 LegendNANA

Notes on Data Quality.

Legend

  • E = Estimated
  • M = Missing
  • NA = Not Available*
  • [empty] = Indicates an unobserved value
Date modified: